Temp
-7 -7 -7 -7 -7 -8 -8 -8 -8 -8 -9 -9 -8 -8 -8 -9 -10 -9 -10 -10 -9 -9 -9 -8 -8 -8 -8 -8 -8 -8 -8 -8 -8 -8 -8 -8 -8 -7 -8 -8 -8 -8 -8 -7 -7 -7 -7 -7 -7
-8 -8 -8 -8 -8 -8 -8 -9 -9 -9 -9 -9 -9 -9 -9 -9 -9 -9 -9 -9 -9 -9 -9 -8 -8 -8 -9 -8 -8 -8 -8 -8 -8 -8 -8 -8 -8 -7 -7 -8 -8 -8 -7 -7 -7 -7 -7 -7 -7
-8 -8 -8 -8 -8 -8 -9 -9 -9 -9 -10 -9 -9 -9 -9 -8 -8 -8 -9 -9 -9 -9 -9 -9 -9 -9 -9 -9 -9 -9 -9 -9 -8 -9 -8 -8 -8 -8 -8 -8 -8 -8 -8 -8 -8 -8 -8 -8 -7
-8 -8 -9 -9 -8 -9 -10 -9 -9 -9 -9 -9 -9 -9 -9 -8 -8 -9 -9 -9 -9 -9 -10 -9 -10 -10 -10 -10 -10 -10 -10 -10 -9 -9 -9 -9 -9 -8 -8 -8 -7 -7 -8 -8 -9 -9 -9 -9 -9
-9 -9 -9 -9 -9 -9 -10 -9 -9 -9 -9 -8 -9 -9 -9 -9 -9 -10 -10 -10 -11 -10 -10 -10 -11 -10 -10 -10 -10 -10 -10 -10 -9 -9 -9 -9 -9 -8 -8 -8 -8 -8 -8 -9 -9 -9 -10 -9 -9
-9 -9 -9 -9 -9 -10 -10 -10 -10 -10 -10 -9 -10 -10 -10 -10 -10 -10 -10 -11 -11 -10 -11 -11 -11 -11 -10 -10 -10 -10 -10 -9 -9 -9 -9 -9 -9 -9 -9 -9 -9 -9 -9 -9 -9 -10 -10 -10 -10
-10 -10 -9 -9 -10 -10 -11 -11 -10 -10 -10 -10 -10 -10 -10 -10 -10 -10 -11 -11 -11 -11 -12 -12 -12 -11 -11 -11 -10 -11 -10 -11 -10 -10 -9 -9 -9 -9 -9 -9 -9 -9 -10 -10 -10 -10 -10 -10 -10
-11 -11 -10 -10 -10 -10 -11 -11 -11 -11 -10 -10 -11 -10 -10 -11 -10 -11 -11 -11 -10 -11 -12 -12 -12 -11 -11 -11 -11 -10 -10 -11 -10 -10 -10 -10 -10 -9 -9 -10 -10 -10 -10 -10 -10 -10 -10 -10 -10
-11 -10 -10 -10 -11 -11 -11 -11 -11 -12 -11 -11 -11 -10 -10 -11 -10 -11 -11 -11 -11 -12 -12 -12 -12 -12 -12 -11 -11 -11 -10 -10 -10 -10 -10 -10 -10 -10 -10 -10 -10 -10 -10 -10 -10 -10 -11 -11 -11
-10 -10 -10 -11 -11 -11 -11 -11 -11 -12 -11 -11 -11 -11 -11 -11 -11 -11 -12 -12 -12 -12 -12 -12 -12 -12 -12 -11 -11 -11 -10 -10 -10 -10 -10 -10 -10 -10 -11 -10 -10 -11 -11 -11 -11 -11 -11 -12 -12
-11 -11 -11 -11 -11 -11 -11 -10 -11 -11 -10 -11 -12 -11 -11 -11 -11 -11 -12 -12 -12 -13 -13 -12 -12 -12 -12 -11 -11 -11 -11 -10 -11 -11 -11 -11 -11 -11 -11 -11 -11 -11 -11 -11 -11 -12 -13 -13 -13
-12 -12 -11 -11 -12 -11 -11 -11 -11 -11 -11 -11 -11 -10 -11 -12 -11 -11 -12 -12 -12 -13 -13 -13 -12 -12 -12 -12 -11 -11 -11 -11 -12 -12 -12 -12 -12 -12 -12 -12 -12 -12 -11 -11 -12 -12 -13 -14 -14
-12 -11 -12 -12 -11 -10 -11 -11 -12 -10 -11 -11 -11 -10 -12 -11 -11 -12 -12 -12 -13 -13 -13 -13 -12 -12 -12 -12 -12 -12 -12 -12 -12 -12 -12 -12 -12 -12 -12 -12 -12 -12 -12 -12 -12 -13 -13 -14 -14
-12 -12 -11 -12 -11 -10 -11 -12 -11 -9 -11 -11 -10 -10 -11 -12 -12 -13 -12 -12 -12 -13 -13 -13 -12 -12 -12 -12 -13 -12 -12 -12 -12 -12 -12 -12 -12 -12 -12 -12 -12 -12 -12 -13 -13 -14 -14 -14 -14
-12 -12 -12 -11 -10 -10 -12 -11 -10 -10 -11 -10 -10 -10 -12 -12 -12 -13 -12 -12 -12 -13 -14 -13 -12 -12 -13 -13 -13 -12 -12 -12 -12 -12 -12 -12 -12 -12 -12 -12 -12 -12 -13 -13 -14 -14 -14 -14 -15
-12 -11 -10 -9 -11 -11 -12 -8 -10 -11 -11 -9 -10 -11 -12 -12 -12 -13 -13 -13 -13 -13 -13 -13 -12 -13 -13 -13 -12 -13 -13 -12 -12 -12 -12 -12 -13 -12 -12 -13 -13 -13 -13 -14 -14 -15 -15 -15 -15
-11 -9 -9 -10 -11 -11 -12 -9 -10 -11 -9 -10 -11 -12 -12 -12 -12 -13 -13 -13 -13 -13 -13 -13 -12 -13 -13 -13 -13 -13 -13 -12 -12 -12 -12 -13 -13 -13 -13 -13 -13 -13 -14 -14 -15 -15 -15 -16 -15
-10 -10 -11 -10 -10 -11 -11 -8 -10 -10 -10 -10 -11 -12 -12 -12 -12 -12 -12 -13 -13 -13 -13 -13 -13 -14 -13 -13 -13 -12 -12 -12 -12 -12 -13 -13 -13 -13 -13 -13 -13 -14 -14 -15 -15 -15 -15 -16 -16
-11 -11 -11 -10 -11 -12 -10 -9 -9 -10 -9 -10 -11 -11 -12 -11 -12 -12 -12 -13 -13 -14 -14 -13 -13 -13 -13 -13 -13 -12 -13 -12 -12 -12 -13 -13 -13 -13 -13 -13 -14 -14 -14 -15 -15 -15 -16 -16 -15
-12 -11 -10 -10 -11 -11 -10 -9 -9 -10 -10 -10 -10 -11 -12 -11 -11 -12 -13 -13 -13 -13 -13 -13 -13 -13 -13 -13 -12 -12 -13 -13 -13 -12 -12 -13 -13 -13 -13 -13 -14 -14 -15 -15 -15 -15 -15 -15 -15
-11 -11 -10 -10 -12 -11 -10 -10 -10 -10 -11 -11 -11 -11 -11 -11 -12 -13 -13 -12 -12 -13 -13 -13 -12 -12 -12 -12 -12 -12 -13 -13 -13 -13 -13 -13 -13 -13 -13 -14 -14 -15 -15 -15 -15 -15 -15 -15 -15
-12 -11 -11 -11 -11 -11 -11 -10 -10 -11 -11 -11 -11 -11 -12 -12 -12 -13 -13 -13 -13 -13 -13 -12 -12 -12 -12 -12 -12 -12 -12 -13 -13 -13 -12 -13 -13 -13 -14 -15 -14 -15 -15 -15 -15 -15 -15 -15 -14
-11 -12 -11 -11 -11 -11 -11 -10 -9 -12 -11 -11 -10 -11 -12 -12 -12 -12 -12 -12 -12 -12 -12 -12 -12 -12 -12 -12 -12 -12 -12 -13 -13 -12 -13 -13 -13 -13 -14 -14 -14 -14 -15 -14 -15 -14 -14 -14 -14
-12 -11 -11 -11 -11 -10 -11 -10 -8 -11 -12 -10 -11 -11 -11 -12 -12 -12 -12 -12 -12 -12 -12 -12 -12 -12 -12 -12 -12 -12 -12 -12 -12 -12 -13 -13 -13 -14 -14 -14 -14 -14 -14 -14 -14 -14 -14 -14 -14
-11 -11 -11 -11 -10 -9 -11 -10 -10 -11 -11 -10 -11 -11 -11 -12 -12 -13 -12 -11 -12 -12 -12 -12 -12 -12 -12 -12 -12 -12 -12 -12 -12 -12 -13 -13 -13 -14 -14 -14 -14 -14 -14 -14 -14 -14 -14 -14 -14
-10 -10 -10 -9 -10 -10 -11 -10 -10 -11 -10 -10 -11 -11 -12 -12 -13 -12 -12 -11 -12 -12 -12 -12 -12 -12 -12 -12 -12 -12 -12 -12 -12 -12 -13 -13 -13 -14 -14 -14 -14 -15 -14 -14 -14 -14 -13 -13 -13
-10 -10 -10 -11 -10 -10 -10 -11 -12 -11 -9 -11 -11 -12 -12 -12 -13 -12 -11 -11 -12 -12 -12 -12 -12 -12 -12 -12 -12 -12 -12 -12 -12 -12 -13 -13 -13 -14 -14 -14 -14 -14 -14 -14 -13 -13 -13 -13 -13
-11 -11 -11 -10 -10 -10 -10 -10 -10 -10 -11 -11 -11 -12 -12 -13 -12 -11 -11 -11 -12 -12 -12 -12 -12 -12 -12 -12 -12 -12 -12 -12 -12 -12 -13 -13 -13 -13 -13 -13 -14 -14 -14 -13 -13 -13 -13 -13 -13
-11 -10 -11 -11 -10 -10 -9 -9 -10 -11 -11 -11 -11 -12 -13 -12 -11 -11 -11 -11 -11 -12 -12 -12 -12 -12 -12 -13 -12 -12 -12 -12 -12 -13 -13 -13 -13 -13 -13 -13 -13 -14 -14 -13 -13 -13 -13 -13 -13
-11 -11 -10 -10 -9 -10 -10 -9 -11 -11 -10 -11 -12 -13 -12 -11 -11 -11 -11 -11 -11 -12 -12 -12 -12 -12 -13 -13 -12 -12 -12 -12 -12 -13 -13 -13 -13 -13 -13 -13 -13 -13 -13 -13 -14 -13 -13 -13 -13
Height
5891 5892 5890 5890 5891 5887 5885 5881 5878 5880 5880 5878 5876 5877 5880 5878 5876 5874 5868 5863 5859 5857 5855 5851 5847 5844 5841 5840 5839 5837 5836 5833 5831 5830 5828 5828 5827 5827 5826 5826 5826 5826 5826 5825 5825 5826 5827 5828 5829
5888 5889 5889 5887 5886 5884 5883 5878 5875 5875 5874 5872 5871 5871 5874 5874 5871 5869 5864 5860 5856 5853 5849 5845 5842 5838 5835 5833 5831 5828 5827 5825 5824 5822 5818 5819 5818 5817 5818 5818 5818 5818 5817 5817 5817 5817 5818 5820 5821
5884 5885 5887 5884 5881 5880 5878 5875 5875 5871 5870 5868 5867 5867 5870 5869 5866 5862 5858 5854 5850 5847 5843 5838 5835 5832 5829 5826 5822 5819 5818 5816 5815 5813 5811 5811 5811 5810 5808 5807 5808 5808 5808 5807 5807 5808 5809 5809 5812
5879 5880 5882 5881 5878 5876 5874 5873 5872 5871 5868 5863 5862 5861 5864 5863 5859 5856 5853 5849 5845 5841 5837 5832 5829 5825 5822 5820 5817 5814 5812 5809 5806 5804 5804 5803 5801 5800 5799 5799 5797 5796 5798 5799 5799 5798 5798 5800 5803
5875 5875 5877 5877 5876 5873 5868 5868 5866 5866 5864 5861 5857 5855 5857 5855 5851 5850 5847 5843 5839 5836 5831 5827 5823 5819 5817 5814 5811 5808 5804 5802 5799 5798 5797 5796 5794 5793 5792 5791 5789 5787 5785 5785 5787 5789 5790 5791 5793
5871 5870 5871 5872 5872 5870 5864 5862 5862 5861 5858 5856 5853 5851 5850 5849 5847 5845 5842 5838 5835 5831 5826 5822 5817 5814 5812 5809 5806 5801 5796 5794 5793 5793 5791 5788 5785 5785 5783 5781 5778 5777 5776 5776 5777 5779 5780 5781 5783
5864 5863 5866 5867 5869 5868 5861 5858 5859 5857 5854 5853 5851 5848 5847 5843 5841 5840 5836 5833 5830 5826 5821 5816 5812 5808 5805 5802 5799 5795 5792 5789 5786 5785 5783 5781 5778 5776 5774 5772 5770 5769 5767 5768 5768 5769 5769 5770 5772
5858 5855 5860 5862 5863 5863 5860 5855 5853 5851 5850 5846 5843 5843 5841 5838 5837 5836 5832 5828 5825 5821 5816 5812 5808 5803 5799 5795 5792 5790 5788 5785 5781 5778 5775 5772 5770 5768 5766 5763 5761 5759 5758 5757 5758 5760 5760 5759 5760
5850 5848 5854 5857 5856 5854 5856 5852 5853 5846 5842 5840 5837 5838 5835 5833 5833 5832 5828 5824 5821 5817 5812 5807 5803 5800 5796 5793 5788 5785 5783 5779 5774 5771 5767 5764 5761 5758 5756 5754 5752 5750 5749 5747 5747 5748 5748 5749 5750
5843 5841 5848 5852 5849 5848 5847 5846 5847 5842 5840 5836 5833 5831 5829 5829 5829 5827 5824 5821 5818 5813 5809 5804 5800 5796 5791 5787 5783 5779 5776 5772 5767 5763 5760 5756 5753 5750 5748 5747 5744 5741 5739 5737 5736 5736 5736 5737 5739
5835 5833 5843 5843 5843 5838 5838 5840 5838 5833 5833 5832 5829 5828 5826 5828 5825 5822 5818 5816 5813 5809 5803 5799 5794 5790 5785 5781 5779 5774 5770 5765 5762 5758 5754 5749 5746 5744 5741 5739 5735 5732 5729 5728 5726 5724 5724 5726 5727
5822 5827 5832 5835 5836 5831 5830 5827 5828 5827 5825 5827 5824 5820 5822 5821 5819 5816 5813 5811 5807 5803 5798 5792 5788 5785 5781 5777 5773 5767 5763 5759 5755 5751 5747 5742 5739 5737 5733 5731 5727 5723 5719 5717 5715 5714 5714 5715 5718
5814 5822 5823 5823 5824 5825 5823 5821 5818 5818 5820 5820 5817 5814 5816 5815 5812 5809 5809 5806 5802 5797 5792 5787 5783 5778 5775 5770 5763 5759 5756 5753 5750 5745 5740 5735 5731 5728 5725 5723 5719 5715 5712 5709 5707 5707 5707 5708 5712
5813 5809 5811 5813 5816 5817 5816 5811 5809 5816 5815 5814 5810 5809 5810 5811 5805 5804 5803 5801 5796 5793 5787 5781 5779 5774 5769 5763 5758 5754 5750 5747 5743 5739 5733 5728 5724 5720 5717 5713 5710 5706 5703 5701 5700 5701 5701 5702 5705
5801 5798 5800 5806 5809 5810 5809 5798 5805 5811 5808 5806 5804 5804 5805 5803 5800 5798 5797 5794 5791 5788 5783 5778 5774 5769 5765 5759 5753 5750 5746 5742 5737 5732 5727 5723 5719 5715 5710 5705 5702 5699 5696 5695 5693 5693 5693 5695 5698
5789 5789 5791 5802 5806 5808 5801 5792 5803 5802 5798 5799 5800 5800 5799 5795 5794 5793 5791 5789 5786 5783 5779 5774 5770 5765 5760 5755 5751 5747 5742 5737 5733 5728 5722 5717 5713 5709 5704 5700 5696 5693 5690 5687 5686 5685 5685 5687 5691
5777 5780 5787 5792 5800 5795 5790 5789 5797 5793 5792 5794 5796 5794 5791 5791 5789 5787 5787 5785 5782 5778 5774 5770 5766 5761 5757 5751 5747 5742 5737 5733 5728 5723 5717 5712 5708 5704 5699 5693 5690 5687 5684 5681 5680 5680 5681 5683 5687
5773 5777 5781 5786 5791 5786 5783 5781 5791 5789 5786 5788 5788 5788 5787 5786 5782 5783 5784 5782 5777 5774 5769 5765 5761 5756 5751 5746 5742 5737 5733 5728 5723 5718 5712 5706 5702 5698 5693 5688 5685 5682 5679 5678 5677 5677 5679 5681 5685
5769 5769 5773 5782 5782 5777 5777 5778 5787 5784 5783 5783 5783 5783 5782 5781 5778 5780 5779 5777 5773 5769 5764 5761 5755 5751 5746 5742 5738 5733 5729 5724 5718 5712 5706 5700 5696 5692 5688 5684 5680 5678 5676 5676 5676 5677 5678 5682 5686
5756 5759 5768 5773 5777 5769 5774 5774 5780 5779 5780 5778 5779 5777 5777 5776 5776 5777 5774 5772 5767 5764 5760 5756 5751 5746 5743 5739 5734 5730 5725 5720 5713 5706 5701 5696 5692 5688 5684 5679 5677 5675 5674 5674 5675 5677 5680 5684 5689
5747 5756 5764 5769 5767 5764 5767 5768 5773 5775 5772 5773 5774 5773 5773 5774 5773 5771 5769 5764 5764 5759 5756 5751 5746 5743 5740 5735 5730 5726 5721 5717 5712 5705 5699 5693 5689 5684 5680 5676 5675 5673 5672 5672 5674 5678 5682 5686 5692
5741 5754 5757 5760 5761 5760 5759 5759 5767 5768 5768 5769 5768 5769 5770 5770 5770 5767 5764 5760 5757 5755 5752 5747 5743 5740 5736 5732 5727 5722 5718 5714 5708 5702 5695 5689 5684 5681 5677 5676 5674 5673 5672 5671 5675 5680 5685 5690 5694
5741 5746 5750 5752 5752 5752 5754 5751 5763 5760 5763 5765 5765 5766 5768 5767 5764 5762 5758 5756 5753 5750 5747 5743 5740 5736 5732 5727 5723 5719 5716 5711 5704 5699 5692 5688 5683 5679 5676 5676 5674 5674 5674 5674 5679 5685 5690 5693 5697
5735 5738 5740 5741 5742 5738 5753 5749 5757 5758 5759 5762 5764 5765 5765 5762 5759 5757 5754 5751 5748 5746 5743 5740 5736 5733 5728 5723 5720 5717 5714 5708 5702 5696 5691 5686 5683 5679 5677 5676 5675 5676 5677 5679 5684 5689 5693 5696 5700
5723 5726 5729 5730 5731 5729 5750 5745 5757 5753 5756 5759 5759 5761 5760 5758 5755 5753 5750 5747 5745 5742 5740 5736 5733 5729 5725 5722 5718 5716 5711 5706 5700 5694 5689 5686 5683 5681 5679 5678 5677 5678 5680 5684 5688 5692 5697 5699 5704
5717 5721 5723 5723 5725 5734 5742 5736 5750 5749 5751 5752 5754 5757 5756 5754 5752 5749 5747 5743 5741 5739 5736 5733 5730 5727 5723 5720 5717 5714 5709 5704 5699 5693 5690 5687 5684 5683 5682 5681 5681 5682 5684 5688 5691 5695 5700 5703 5707
5709 5708 5718 5721 5726 5732 5732 5741 5743 5744 5746 5748 5751 5754 5753 5750 5749 5746 5742 5740 5739 5736 5734 5731 5728 5725 5722 5719 5716 5712 5709 5704 5699 5695 5691 5688 5686 5685 5685 5685 5685 5685 5687 5690 5694 5699 5703 5707 5711
5699 5700 5710 5713 5718 5720 5729 5735 5739 5741 5744 5746 5749 5749 5748 5748 5746 5741 5739 5738 5737 5734 5732 5730 5726 5723 5721 5719 5715 5712 5708 5704 5700 5697 5692 5690 5688 5689 5689 5689 5689 5690 5692 5694 5697 5701 5705 5710 5714
5685 5688 5700 5709 5712 5717 5726 5731 5735 5738 5741 5743 5745 5746 5746 5746 5740 5738 5738 5737 5736 5734 5732 5729 5726 5723 5721 5718 5716 5713 5709 5705 5701 5699 5695 5692 5691 5691 5693 5693 5694 5695 5696 5698 5700 5703 5706 5712 5717
5682 5690 5699 5704 5710 5715 5721 5729 5729 5733 5737 5739 5742 5743 5743 5741 5738 5737 5737 5737 5735 5733 5731 5729 5726 5723 5722 5719 5716 5714 5711 5707 5703 5702 5698 5695 5694 5695 5695 5696 5697 5698 5700 5702 5704 5706 5709 5713 5718
Wind_Speed
12 13 14 14 14 18 24 26 25 22 23 26 28 25 20 20 24 29 32 34 36 33 35 35 35 36 37 36 34 33 34 30 29 30 30 30 30 31 31 31 32 32 31 32 33 34 33 34 34
15 17 17 18 20 25 24 20 25 26 24 22 23 23 19 17 22 25 29 28 27 29 31 33 34 35 36 39 39 38 33 31 29 30 29 31 32 33 33 33 34 34 34 34 34 36 36 36 36
21 21 20 20 25 24 18 21 24 27 23 26 26 25 21 20 24 26 25 26 27 27 29 31 33 34 36 37 36 37 35 31 31 31 30 33 34 36 37 37 36 36 36 35 35 37 38 38 38
23 24 22 23 25 22 19 21 25 26 32 29 29 29 19 20 25 25 23 25 26 27 29 31 31 31 31 31 32 32 32 35 34 32 33 35 37 37 37 37 40 40 39 36 34 34 35 37 35
25 27 25 26 27 23 25 28 27 28 31 31 32 29 24 27 29 27 26 26 27 28 28 28 27 26 26 26 27 30 30 31 33 33 35 35 36 38 39 40 40 40 41 38 36 34 35 36 38
29 30 29 31 25 23 27 28 28 28 32 32 26 23 22 27 31 28 24 27 29 28 27 27 29 30 30 29 31 32 32 31 34 36 35 36 37 39 41 42 41 40 38 39 41 40 39 40 41
33 35 35 32 26 22 26 29 29 31 32 34 35 28 26 31 27 28 25 29 29 25 24 27 30 33 31 30 35 38 38 39 40 40 40 40 39 41 42 41 40 39 37 38 41 41 43 43 43
40 41 35 33 27 25 26 30 33 34 34 36 38 37 30 32 26 24 26 27 25 18 21 27 31 33 34 36 37 37 38 40 39 40 39 38 37 39 38 37 35 36 38 39 39 40 41 41 43
43 46 38 32 34 32 26 30 30 37 43 40 37 35 30 32 28 25 25 24 20 23 26 27 31 34 36 36 34 35 37 37 36 37 37 38 38 36 31 30 32 37 39 39 40 42 42 42 42
43 44 37 36 37 34 31 31 32 41 44 37 31 29 35 31 27 21 21 21 22 25 28 30 35 36 39 39 40 38 38 37 36 36 36 37 36 33 30 30 34 35 37 38 41 45 43 42 42
48 42 39 42 39 41 40 37 38 45 36 27 32 34 33 24 23 22 22 21 21 27 34 35 37 37 39 40 40 37 34 33 33 32 33 32 29 28 31 34 35 35 37 38 38 38 39 42 41
49 47 47 44 43 46 44 47 48 36 32 27 31 31 24 21 22 20 22 19 22 27 34 35 36 36 39 38 36 34 31 32 32 31 31 28 30 29 30 33 33 35 37 34 34 36 36 39 38
57 49 49 49 49 46 49 49 53 31 28 29 33 27 18 25 18 17 19 19 25 31 34 38 39 35 36 37 36 32 31 33 32 31 30 32 33 32 30 29 31 34 31 29 27 29 28 29 31
52 53 52 50 48 48 50 52 35 19 23 33 32 23 18 20 16 24 25 24 21 28 33 36 38 31 35 37 35 31 33 34 33 31 31 29 31 29 31 33 33 28 27 24 25 27 28 32 33
58 59 57 51 45 44 52 41 26 18 24 29 26 18 19 17 20 28 23 17 20 24 30 34 33 32 35 37 33 31 33 34 33 33 31 29 27 26 30 31 30 25 25 24 25 27 29 29 28
59 60 55 40 44 33 39 30 19 22 30 26 17 16 17 14 21 23 22 22 24 26 29 35 33 29 33 33 31 31 32 33 32 34 33 32 27 27 28 26 25 22 23 21 22 22 23 25 25
63 55 45 39 38 29 34 31 14 30 28 16 18 17 13 15 18 18 16 24 25 28 30 35 32 30 32 33 32 32 31 33 31 30 26 26 27 25 29 26 21 20 20 18 19 17 17 21 23
60 53 49 36 17 29 35 37 22 27 26 20 14 13 13 19 18 17 19 25 29 29 33 34 29 30 34 35 32 31 32 33 31 29 30 27 22 23 27 22 18 18 15 15 13 14 14 18 22
55 56 48 24 20 30 35 37 25 25 25 20 20 16 13 17 18 21 25 28 36 29 36 32 29 32 34 31 31 30 32 30 31 32 28 23 20 24 22 22 16 14 11 10 9 9 13 16 19
56 52 28 21 19 34 33 33 26 27 26 23 18 11 13 13 16 20 24 28 31 34 36 28 29 29 29 28 29 29 31 28 32 27 22 19 22 25 21 18 11 10 8 8 11 12 17 21 20
43 26 18 17 23 38 35 34 27 27 28 20 12 12 11 12 15 20 26 31 33 34 28 25 24 26 28 28 27 28 28 26 25 24 23 25 25 26 21 9 7 6 5 6 15 21 18 21 19
27 21 21 22 30 37 40 38 29 30 24 17 13 12 6 8 15 16 22 26 31 24 21 23 23 27 26 27 26 28 25 25 24 25 26 26 19 17 15 5 3 2 2 11 21 25 19 19 20
24 24 26 26 31 39 40 43 20 27 14 15 11 4 6 7 13 22 19 17 19 19 21 23 25 25 26 25 25 25 22 23 23 24 21 21 16 13 4 1 1 2 7 17 20 22 19 21 23
31 28 30 33 37 47 34 39 11 15 16 11 7 4 6 8 13 25 21 19 20 18 20 20 23 23 25 24 23 19 20 22 21 23 16 15 13 9 2 2 3 6 12 19 21 18 19 24 24
42 39 40 42 43 50 28 40 14 19 17 15 10 4 9 10 16 25 18 15 14 16 15 20 20 22 22 21 17 17 20 19 21 15 13 13 11 4 3 5 6 9 16 20 19 18 21 22 25
42 42 44 48 49 41 30 36 18 24 20 9 8 4 6 10 18 24 17 15 13 12 17 18 19 19 21 16 14 18 16 19 13 11 13 11 10 4 7 9 9 14 19 20 19 21 18 21 17
43 48 45 45 42 37 35 24 28 24 11 9 5 5 7 12 19 19 13 15 11 12 14 16 18 16 18 13 14 14 12 16 13 11 12 10 8 8 8 11 11 18 23 21 18 23 19 20 19
38 48 45 46 44 42 32 28 27 19 12 10 6 5 8 16 21 9 12 11 10 9 11 15 15 14 15 11 10 9 11 14 11 13 9 8 8 10 8 13 13 18 21 19 16 17 17 23 23
43 47 45 41 39 36 28 26 20 19 15 9 5 4 11 14 14 10 13 10 11 7 10 13 11 11 11 8 7 10 10 16 9 11 12 9 9 12 11 12 15 16 20 17 20 21 22 22 22
38 41 39 38 32 30 28 25 25 21 11 7 7 4 12 12 14 10 13 10 10 6 8 9 9 7 8 6 9 10 9 15 10 12 15 12 10 11 12 14 13 14 18 18 20 20 17 22 26
Wind_Direction
253 266 277 279 305 315 322 309 293 281 279 274 275 280 288 293 293 297 297 296 297 295 294 295 298 300 300 297 293 287 285 282 279 276 273 273 272 271 269 267 268 270 271 273 274 273 270 266 258
258 265 274 282 305 313 319 291 277 273 271 282 286 274 276 289 288 289 288 297 302 299 293 294 296 295 294 292 290 287 282 280 279 279 281 282 280 277 272 269 267 272 273 273 273 274 273 267 263
257 268 276 290 308 323 314 290 291 285 273 275 276 280 286 285 290 299 311 311 311 304 301 296 292 292 293 292 293 283 284 282 280 281 281 278 278 277 275 274 274 275 275 272 271 270 269 265 259
260 271 273 292 307 319 297 285 285 279 272 281 287 288 301 298 290 314 315 312 312 305 302 301 300 296 293 288 288 288 281 278 280 279 277 278 279 277 275 276 279 279 276 270 262 263 263 257 251
264 264 268 290 302 306 303 305 292 286 281 279 289 296 291 298 306 316 314 314 314 309 310 305 301 298 296 291 291 284 275 274 274 276 278 280 280 276 276 278 278 280 281 277 271 265 261 253 251
260 262 270 284 293 295 295 289 292 301 300 290 291 296 295 293 303 316 314 316 311 307 307 297 297 297 295 298 299 303 299 286 282 281 281 283 280 278 279 280 280 277 274 273 271 268 265 260 258
262 262 271 277 285 292 286 288 291 290 295 288 281 283 289 296 306 321 315 311 310 308 308 299 300 302 304 307 309 307 301 294 291 289 287 284 281 281 282 281 278 272 268 269 270 270 268 262 257
262 263 264 277 283 276 272 279 286 292 295 288 278 288 293 295 307 318 307 307 303 306 310 308 309 307 310 310 307 301 294 288 284 285 287 285 284 282 280 279 278 276 270 273 266 268 267 262 258
257 264 270 272 280 275 278 276 276 287 301 291 283 283 286 293 313 313 300 299 297 312 308 305 307 309 306 302 308 303 295 289 290 290 289 287 287 284 281 284 288 280 275 272 271 270 266 262 257
272 270 270 271 272 272 277 277 287 276 287 280 276 281 283 296 305 297 299 296 296 305 300 303 308 309 302 301 303 308 302 295 293 294 293 290 287 281 280 281 292 282 277 274 271 271 270 262 254
275 272 276 271 269 271 275 282 278 289 275 265 266 271 275 298 299 288 288 295 306 311 309 301 300 303 301 300 301 302 299 296 299 300 299 294 285 277 283 287 288 285 281 280 273 270 265 255 250
264 269 271 273 268 270 280 284 298 285 265 250 263 264 290 299 286 279 287 298 314 314 311 307 300 304 303 305 302 307 302 308 307 306 301 298 295 289 287 289 288 284 290 282 277 269 262 255 249
264 273 267 268 267 272 278 289 297 261 260 257 258 268 288 300 288 305 306 293 310 314 314 312 303 308 306 306 313 310 310 312 306 308 305 299 293 291 286 293 294 291 282 280 272 266 256 243 241
258 260 263 263 271 277 289 291 275 254 246 251 257 268 276 291 325 320 313 302 307 313 315 307 304 307 309 315 314 311 316 312 311 309 310 307 297 290 292 297 297 291 286 281 273 262 253 243 238
254 256 261 266 277 287 291 269 253 255 245 249 259 270 268 297 309 324 322 321 319 317 324 309 309 314 313 318 314 313 316 315 313 311 310 308 305 301 300 298 298 289 287 284 272 260 254 241 233
251 257 263 269 277 291 278 259 242 245 241 252 252 263 269 305 314 318 333 330 319 319 316 313 310 311 314 317 311 313 316 314 311 311 309 305 303 304 310 302 298 291 289 286 272 257 244 231 223
253 259 267 275 287 267 258 251 215 230 243 251 254 272 286 298 308 331 327 329 325 315 314 308 309 312 314 313 313 315 313 313 312 312 314 308 304 302 309 303 296 292 293 279 265 249 229 214 219
257 265 269 273 238 258 242 246 214 236 244 250 250 261 272 303 308 324 306 318 313 318 316 311 309 310 312 311 312 314 312 314 314 313 315 309 303 306 312 306 298 297 292 272 253 226 229 219 200
263 265 264 241 247 251 245 245 235 238 251 246 245 264 292 298 315 309 307 308 303 308 313 304 312 315 312 310 311 312 314 315 312 313 314 310 312 316 314 308 296 297 282 261 234 225 193 178 175
256 258 238 217 247 247 244 247 242 258 262 255 271 297 307 318 330 308 303 307 291 312 304 304 312 312 311 310 312 312 316 318 322 325 325 320 315 317 315 303 292 295 272 245 214 188 165 162 165
243 222 217 234 234 240 244 243 246 262 258 259 282 293 317 337 317 303 293 280 297 305 297 311 316 314 312 312 309 314 316 317 317 329 328 322 313 313 312 293 295 283 251 238 183 170 160 168 163
227 239 248 233 226 237 249 251 248 257 257 268 268 291 343 349 348 308 286 292 299 295 307 317 313 314 311 309 308 313 313 321 323 331 329 325 320 320 316 302 307 317 207 158 161 173 164 164 160
224 244 238 230 229 234 238 254 244 249 241 268 279 244 228 312 337 336 308 297 300 303 309 312 312 316 309 305 308 310 315 320 328 330 332 327 333 337 321 328 97 130 138 149 157 162 161 158 160
239 234 233 230 229 237 222 250 234 226 244 249 186 209 284 354 333 333 320 304 301 307 310 310 316 313 308 310 309 310 320 325 333 333 327 334 342 347 78 109 125 149 140 144 149 160 162 162 164
230 229 227 233 234 241 228 243 202 219 219 199 191 279 313 332 339 323 319 312 311 315 313 314 317 313 310 315 312 322 323 334 336 333 334 340 353 13 93 102 133 145 145 145 149 156 160 169 167
232 236 235 236 236 244 233 239 204 214 212 197 200 308 313 319 323 319 310 326 309 318 321 314 314 313 311 316 314 324 334 345 349 344 343 351 8 80 103 89 123 129 134 143 144 146 160 165 166
232 230 234 235 238 243 237 222 205 214 214 190 186 271 324 331 309 310 316 325 320 326 313 311 315 304 313 319 313 325 343 0 9 360 4 19 44 116 116 105 128 134 143 146 142 144 156 159 166
222 233 220 226 228 233 233 217 209 214 203 198 211 273 320 314 316 331 328 330 335 321 310 313 315 309 319 327 330 336 349 2 5 10 28 35 55 125 127 116 127 137 146 155 136 162 155 156 159
213 220 211 222 230 230 224 224 211 212 215 201 197 281 300 312 351 341 334 320 334 314 312 317 312 309 344 348 352 357 4 10 28 34 30 37 73 123 119 119 124 137 142 148 149 143 153 158 151
212 221 219 226 222 219 220 209 201 216 205 192 227 256 295 353 353 325 333 314 328 302 316 315 316 321 4 10 23 23 18 23 37 45 39 71 87 121 122 127 133 139 143 142 152 165 157 167 162